Вернуться в каталог

FENGYUN 1C DEB

АктивенPO
NORAD 30933·DEBRIS·🇨🇳 China

Запущен May 10, 1999 с Taiyuan Satellite Launch Center

Loading…

Ближайшие Пролёты (ближайшие 24 часа)

TLE

СвежийSource: Space-Track

Эпоха: Sep 14, 2026, 11:25 UTC

1 30933U 99025AZX 26257.47616940  .00006057  00000-0  17873-2 0  9998
2 30933  99.0570 260.6879 0065370 228.2745 286.5298 14.42703694998409

Отслеживайте FENGYUN 1C DEB в реальном времени с AllMySat

Download on the App Store